Wind_Speed
35 35 34 34 34 34 34 34 34 34 34 34 34 33 33 33 33 33 33 33 33 33 33 33 33 33 34 34 34 34 34 34 34 34 34 34 34 34 35 35 35 35 35 35 35 35 34 34 33 33 32 31 31 30 30 29 29 28 27 27 26 25 24 24 23 23 23 22 22 22 23 23 24 24 25 26 26 27 27 27 28 28 29 29 29 30
35 35 34 34 34 34 34 34 34 33 34 34 34 33 33 33 34 34 34 34 34 34 33 33 34 34 34 34 35 35 35 35 35 35 35 35 35 35 35 35 36 36 36 36 35 35 35 34 33 33 32 31 31 30 30 29 29 28 27 27 26 26 25 25 24 24 24 23 23 23 24 24 25 25 26 26 26 27 27 28 28 29 29 29 30 30
34 34 34 34 34 34 34 34 34 34 34 34 34 34 34 34 34 34 35 35 35 35 34 34 34 34 35 35 35 36 36 36 36 36 36 36 36 36 36 36 36 36 36 36 36 35 35 34 34 33 32 31 31 30 30 29 29 28 28 27 27 26 26 26 25 25 25 24 24 24 25 25 25 26 26 27 27 27 28 28 29 29 30 30 30 31
34 34 34 34 34 34 34 34 34 34 34 34 34 34 34 34 34 35 35 35 36 36 35 35 35 35 35 36 36 36 37 37 37 37 37 37 36 36 36 37 37 37 37 37 36 36 36 35 34 33 32 31 31 30 30 29 29 28 28 28 27 27 27 26 26 26 26 25 25 25 26 26 26 26 27 27 28 28 28 29 29 30 30 31 31 31
35 35 35 34 34 34 34 34 34 34 34 34 35 35 35 35 35 35 36 36 36 36 36 36 36 36 36 37 37 37 37 38 38 38 37 37 37 37 37 37 37 37 37 37 37 36 36 35 34 33 32 32 31 30 30 29 29 29 28 28 28 28 27 27 27 27 27 27 26 26 27 27 27 27 27 28 28 29 29 29 30 30 31 31 32 32
35 35 35 35 34 34 34 34 35 35 35 35 35 35 35 35 36 36 36 37 37 37 37 37 37 37 37 37 37 38 38 38 38 38 38 38 38 37 37 37 37 37 37 37 37 37 36 36 35 34 33 32 31 31 30 30 29 29 29 29 28 28 28 28 28 28 28 28 28 28 28 28 28 28 28 29 29 30 30 30 31 31 32 32 33 33
35 35 35 35 35 35 35 35 35 35 35 35 35 36 36 36 37 37 37 37 37 37 37 37 38 38 37 38 38 38 38 38 39 39 38 38 38 38 38 38 38 38 38 38 37 37 37 36 35 34 33 32 32 31 31 30 30 29 29 29 29 29 29 29 29 29 29 29 29 29 29 29 29 29 29 30 30 30 31 31 32 32 33 33 34 34
35 35 35 35 35 35 35 35 35 35 35 36 36 36 37 37 38 38 38 38 38 38 38 38 38 38 38 38 38 38 38 39 39 39 39 39 38 38 38 38 38 38 38 38 38 37 37 36 36 35 34 33 32 31 31 31 30 30 30 30 30 30 30 29 29 29 30 30 30 30 30 30 30 30 31 31 31 32 32 32 33 33 34 34 35 35
35 35 35 35 35 35 35 35 36 36 36 36 36 37 37 38 38 39 39 38 38 38 38 38 38 38 38 38 38 38 39 39 39 39 39 39 39 38 38 38 38 38 38 38 38 38 37 37 36 35 34 33 32 32 32 31 31 31 31 31 31 31 30 30 30 30 31 31 31 31 31 31 31 31 32 32 32 33 33 33 34 34 35 35 36 36
35 35 35 35 35 35 35 36 36 36 36 36 37 37 38 38 38 39 39 39 39 39 39 38 38 38 38 39 39 39 39 39 40 40 40 39 39 39 38 38 38 38 38 38 38 38 37 37 36 35 34 34 33 32 32 32 32 32 32 32 32 32 31 31 31 31 31 31 32 32 32 32 32 33 33 33 34 34 34 35 35 36 36 37 37 37
35 35 35 35 36 36 36 36 36 37 37 37 38 38 39 39 39 38 38 38 39 39 39 39 39 38 39 39 39 40 40 40 40 40 40 40 39 39 38 38 38 37 37 38 38 38 38 37 37 36 35 34 33 33 33 32 32 33 33 33 33 33 32 32 32 32 32 32 32 33 33 33 33 34 34 35 35 35 36 36 37 37 38 38 38 39
36 36 36 36 36 36 36 36 37 37 37 37 38 38 39 40 39 39 38 38 38 39 39 39 39 39 39 39 40 40 40 40 40 40 40 40 39 39 38 38 37 37 37 37 37 38 38 37 37 36 35 34 34 33 33 33 33 33 33 33 33 33 33 33 33 33 33 33 33 33 34 34 35 35 36 36 36 37 37 38 38 39 39 39 40 40
36 36 36 36 36 36 36 36 37 37 37 38 38 38 39 40 40 39 39 38 39 39 39 39 39 40 40 40 40 40 40 40 40 40 40 39 39 39 38 38 37 37 37 37 37 38 38 38 37 36 35 34 34 33 33 33 33 33 34 34 34 34 34 34 33 33 34 34 34 34 35 35 36 36 37 37 38 38 39 40 40 40 41 41 41 41
37 37 36 36 36 36 36 36 36 37 37 38 38 39 40 40 40 40 40 39 39 39 39 39 39 40 40 40 40 40 40 40 39 39 39 39 38 38 38 37 37 37 37 37 37 38 38 38 37 36 36 35 34 34 33 33 33 34 34 34 34 34 34 34 34 34 34 35 35 36 36 37 37 38 38 39 39 40 40 41 41 42 42 42 42 43
37 37 37 36 36 36 36 37 37 37 38 38 39 39 40 40 41 40 40 40 40 40 40 39 39 39 39 39 39 39 39 39 38 38 37 37 37 37 37 37 36 36 36 36 37 38 38 38 37 37 36 35 34 34 34 33 34 34 34 34 35 35 35 35 35 35 35 36 36 37 37 38 38 39 39 40 41 41 42 42 43 43 43 44 44 44
37 37 37 37 36 36 37 37 37 38 38 39 39 40 40 40 41 41 40 40 40 40 40 39 39 39 38 38 38 38 38 37 37 36 36 36 36 36 36 36 36 36 36 36 36 37 38 38 37 37 36 35 35 34 34 34 34 34 34 35 35 35 35 35 36 36 36 37 37 38 39 39 40 40 41 41 42 43 43 44 44 45 45 45 45 45
37 37 37 37 36 37 37 37 38 38 39 39 40 40 40 41 41 41 41 40 40 40 39 38 38 37 37 37 37 37 37 36 36 35 35 34 35 35 35 35 35 35 35 35 36 37 37 37 37 36 36 35 35 34 34 34 34 35 35 35 35 36 36 36 37 37 38 38 39 39 40 40 41 41 42 42 43 44 44 45 46 46 46 46 46 47
37 37 37 37 37 37 37 38 38 39 39 40 40 40 41 41 41 41 40 40 40 39 38 37 36 36 35 35 35 36 36 36 35 34 34 33 34 34 34 34 34 34 34 34 35 36 36 36 36 36 36 35 35 34 34 34 35 35 35 36 36 36 37 37 38 38 39 39 40 41 41 42 42 42 43 43 44 45 45 46 47 47 47 48 48 48
37 37 37 37 37 37 38 38 38 39 39 40 40 40 40 40 40 40 40 39 39 38 37 36 35 34 33 33 34 35 35 35 35 34 33 32 32 32 33 33 33 33 33 33 34 35 36 36 36 36 35 35 35 35 35 35 35 35 36 36 36 37 37 38 39 39 40 41 41 42 42 42 43 43 44 44 45 46 46 47 48 48 49 49 49 49
37 37 37 37 37 38 38 38 39 39 40 40 40 40 40 40 39 39 39 38 38 37 36 35 34 33 33 32 33 33 34 34 34 33 33 32 31 31 31 31 32 31 31 32 33 34 35 35 35 35 35 35 35 35 35 35 36 36 36 36 37 38 38 39 40 40 41 42 42 43 43 43 44 44 45 45 46 47 48 48 49 49 50 50 51 51
37 37 37 37 38 38 38 38 39 39 39 40 39 39 39 39 38 38 37 37 36 35 34 34 33 32 32 31 32 33 33 33 33 33 33 31 30 30 30 30 30 30 30 31 32 33 34 34 35 35 35 35 36 36 36 36 36 36 37 37 38 38 39 40 40 41 42 42 43 43 44 44 44 45 46 46 47 48 49 50 50 51 51 52 52 52
37 37 37 38 38 38 38 38 39 39 39 39 38 38 38 37 37 36 36 35 35 34 33 33 32 32 31 31 31 32 32 33 33 33 32 31 30 29 29 29 29 29 29 30 31 32 33 33 34 34 35 35 36 36 36 36 36 37 37 38 38 39 39 40 41 41 42 43 43 44 44 45 45 46 47 48 49 49 50 51 52 52 53 53 53 53
37 37 37 38 38 38 38 38 38 38 38 38 37 37 36 36 35 35 34 34 33 33 33 32 32 32 31 31 31 32 32 32 32 32 32 31 29 29 28 29 29 29 29 29 30 31 32 32 33 34 34 35 35 36 36 36 37 37 38 38 39 39 40 41 41 42 42 43 44 44 45 46 47 47 48 49 50 51 51 52 53 53 54 54 54 55
37 37 37 37 37 37 37 38 38 38 37 37 36 35 35 34 34 33 33 33 33 32 32 32 32 31 31 31 31 31 31 32 32 32 31 31 30 29 28 29 29 29 29 29 30 30 31 31 32 33 33 34 35 36 36 37 37 38 38 39 40 40 41 41 42 42 43 44 44 45 46 47 48 49 50 50 51 52 53 53 54 54 55 55 55 55
37 37 37 37 37 37 37 37 37 36 36 35 34 34 33 33 33 32 32 32 32 32 32 32 31 31 31 31 31 31 31 31 31 31 31 31 30 29 29 29 30 30 30 30 30 30 30 31 31 32 32 34 34 35 36 37 37 38 39 39 40 40 41 41 42 42 43 44 45 46 47 48 49 50 51 52 53 53 54 54 55 55 55 56 56 56
37 37 37 37 36 36 36 36 35 35 34 33 33 32 32 32 32 31 31 31 31 32 32 32 31 31 31 31 31 31 31 31 31 31 31 31 30 30 29 30 30 30 30 30 30 30 30 30 31 31 32 33 34 35 36 37 37 38 39 39 40 40 41 41 42 43 44 45 46 47 49 50 51 51 52 53 54 54 55 55 56 56 56 57 57 57
37 36 36 36 36 35 35 34 34 33 32 32 31 31 31 31 31 31 30 31 31 31 32 31 31 31 31 31 30 30 30 30 30 30 31 31 30 30 30 30 30 30 30 30 30 30 30 31 31 31 32 33 34 35 35 36 37 38 38 39 40 40 41 42 43 43 45 46 47 48 50 51 52 53 53 54 54 55 55 56 56 57 57 57 58 58
36 36 35 35 34 34 33 33 32 31 31 30 30 30 30 30 30 30 30 30 30 31 31 31 31 30 30 30 30 30 30 30 30 30 30 31 30 30 30 30 31 31 31 31 31 31 31 32 32 33 33 34 34 35 36 36 37 38 38 39 40 41 42 43 43 45 46 47 48 49 51 52 53 53 54 55 55 56 56 57 57 58 58 58 59 59
36 35 35 34 33 32 32 31 30 30 29 29 29 29 30 29 29 29 29 30 30 30 31 31 30 30 30 30 30 29 29 29 30 30 30 31 31 31 31 31 31 31 32 32 32 33 33 34 34 35 35 36 36 36 37 37 37 38 39 39 40 41 43 44 45 46 47 48 49 50 51 52 53 54 55 55 56 56 57 57 58 59 59 59 60 60
35 34 34 33 32 31 30 29 29 28 28 28 29 29 29 29 29 29 30 30 30 30 31 31 30 30 30 30 29 29 28 29 30 30 31 31 31 31 31 32 32 33 33 34 35 35 35 35 36 37 37 38 38 38 38 38 39 39 39 40 41 42 43 44 45 46 47 48 50 51 52 53 53 54 55 55 56 57 57 58 59 59 60 60 60 60
34 33 33 32 30 29 28 28 28 28 28 28 28 29 29 29 30 30 30 30 30 30 30 30 30 30 30 29 29 28 28 29 30 31 31 32 32 32 32 33 34 35 35 36 37 37 37 37 37 38 39 39 39 39 39 40 40 40 40 41 41 42 43 45 46 47 48 49 50 51 52 52 53 54 55 55 56 57 57 58 59 59 60 60 59 59
33 32 31 30 29 28 27 27 27 27 27 28 28 28 29 29 30 30 30 30 30 29 29 29 29 29 29 29 28 28 28 29 30 31 32 33 33 33 34 34 35 36 37 38 38 39 39 39 38 38 39 39 39 40 40 40 41 41 42 42 43 43 44 45 46 47 48 49 50 50 51 52 53 54 55 55 56 57 57 58 58 59 59 58 58 57
31 30 29 28 28 27 27 27 27 27 27 27 28 28 29 29 29 29 29 29 29 29 29 29 29 29 29 28 28 28 29 30 31 32 33 34 34 35 35 36 37 38 38 39 39 40 40 40 40 39 39 40 40 40 41 41 42 42 43 44 44 45 46 46 47 48 49 49 50 51 52 52 53 54 55 55 56 56 57 57 57 57 56 56 55 54
29 28 28 27 27 27 27 27 27 27 28 28 28 28 28 29 29 29 29 29 28 28 28 28 28 28 28 29 29 29 30 31 32 33 34 35 36 36 37 37 38 39 39 40 40 40 41 41 41 41 41 41 41 41 42 43 43 44 44 45 45 46 47 48 48 49 50 50 51 51 52 53 53 54 54 55 55 55 55 54 53 53 52 51 51 50
28 27 27 27 27 27 28 28 28 28 28 28 28 28 28 28 28 28 28 28 28 28 28 28 28 28 29 29 29 30 31 32 34 35 36 36 37 38 38 38 39 39 40 40 41 41 41 42 42 42 42 42 42 43 43 44 45 45 46 46 47 47 48 49 49 50 50 51 51 52 53 53 53 54 54 54 53 53 52 50 49 48 47 46 46 45
27 27 27 27 28 28 28 28 28 28 28 28 28 28 28 28 28 28 28 28 28 28 28 28 29 29 29 30 30 31 32 33 35 36 37 38 38 39 39 39 40 40 40 41 41 42 42 43 43 43 43 44 44 44 45 45 46 46 47 47 48 48 49 49 50 50 51 51 52 52 53 53 53 53 52 51 50 49 47 46 44 43 42 42 41 41
27 28 28 28 28 28 28 28 28 28 28 28 28 28 28 28 27 27 27 27 28 28 28 29 29 30 30 31 32 32 33 34 35 36 37 38 39 39 39 40 40 40 41 42 42 43 43 43 44 44 44 45 45 46 46 46 46 47 47 47 48 48 49 50 50 51 51 52 52 52 52 52 51 50 50 48 47 45 43 41 40 39 38 38 37 37
28 28 28 28 27 27 27 27 27 27 27 27 27 27 27 27 27 27 27 27 28 28 29 29 30 31 32 32 33 34 34 35 36 37 38 38 39 39 40 40 40 41 41 42 43 43 44 44 45 45 45 45 46 46 47 47 47 48 48 48 48 48 49 50 50 51 51 51 51 51 51 50 49 47 46 44 42 40 39 37 36 35 35 35 35 35
28 28 27 27 26 26 26 26 26 26 26 26 26 26 26 26 26 26 26 27 28 28 29 30 31 32 33 34 34 35 36 36 37 37 38 39 39 40 40 40 41 41 42 42 43 44 44 45 45 46 46 46 46 47 47 48 48 48 48 49 49 49 49 50 50 50 50 50 49 48 48 46 45 43 42 40 39 37 35 34 34 33 33 33 34 34
28 27 26 26 25 25 25 26 26 26 25 25 25 25 25 25 25 26 27 27 28 29 30 31 32 33 34 35 35 36 36 37 38 38 39 39 39 40 40 40 41 41 42 42 43 44 44 45 45 46 46 47 47 48 48 48 48 49 49 49 49 49 49 49 49 49 48 47 46 45 44 43 41 40 38 37 35 34 33 32 32 32 32 33 34 35
27 26 25 25 25 25 25 25 25 25 25 24 24 24 25 25 26 27 28 29 29 30 31 32 33 34 35 35 36 36 37 38 38 38 39 39 40 40 41 41 41 42 42 43 43 44 45 45 46 46 47 47 48 48 48 48 48 49 49 49 49 50 50 49 47 46 45 44 43 41 40 39 38 36 35 33 32 31 31 31 31 32 33 34 35 36
25 25 25 25 25 25 25 25 25 25 24 24 25 25 26 26 27 28 29 30 31 32 33 34 35 35 35 36 36 37 37 38 38 39 39 40 40 41 41 42 42 42 43 43 44 44 45 46 46 47 47 48 48 48 48 48 48 48 48 48 49 49 48 47 44 42 40 39 39 38 36 36 35 33 32 31 31 30 30 31 32 33 34 35 36 37
24 24 25 25 25 25 25 25 24 24 25 25 25 26 27 28 29 30 31 32 33 33 34 35 36 36 36 36 36 36 37 38 38 39 40 40 41 41 42 42 43 43 44 44 45 45 46 46 47 47 48 48 48 48 47 47 47 47 46 46 47 46 45 43 41 39 37 36 35 34 33 33 32 32 31 30 30 30 31 32 33 34 35 36 37 37
24 24 24 24 24 24 24 24 24 25 25 26 26 27 28 30 30 31 32 33 34 35 35 36 36 36 36 35 35 35 36 37 38 39 40 40 41 42 42 43 43 44 44 45 45 46 46 46 47 47 47 47 47 47 46 46 45 45 44 44 44 43 41 40 38 36 34 33 32 31 31 31 31 31 31 31 31 31 32 33 34 35 36 37 37 37
24 24 24 24 24 24 24 24 24 25 26 26 28 29 30 31 32 33 33 34 35 35 36 36 36 36 36 35 35 35 36 37 37 38 39 40 41 42 42 43 43 44 44 45 45 45 45 45 46 46 46 46 46 45 45 44 43 43 42 41 40 39 38 36 34 33 31 31 30 30 30 31 31 31 32 32 32 33 34 35 35 36 37 37 36 36
23 23 23 23 23 23 24 24 25 26 27 28 29 30 31 32 33 34 34 35 35 35 36 36 35 35 35 35 35 36 36 37 37 38 39 40 40 41 42 43 43 43 44 44 44 45 45 45 45 45 45 45 44 43 42 41 41 40 40 39 37 36 34 33 32 31 30 30 30 30 31 31 32 33 33 33 33 34 35 36 36 36 36 36 35 35
23 23 23 23 23 24 25 26 27 28 29 30 31 32 33 33 34 34 35 35 35 35 35 35 35 35 35 35 36 36 36 37 38 38 39 39 40 41 42 42 43 43 43 43 44 44 44 44 44 43 43 42 42 41 40 39 38 37 37 36 35 33 32 31 30 30 30 30 30 31 32 32 33 34 34 34 35 35 36 36 36 36 35 34 34 33
23 23 23 24 24 25 26 27 29 30 31 31 32 33 34 34 34 34 34 34 34 34 34 34 35 35 35 35 36 36 37 37 38 38 39 39 40 41 41 42 42 43 43 43 43 43 43 43 42 42 41 40 39 39 38 36 35 34 34 33 33 31 30 30 29 30 30 31 31 32 33 34 35 35 36 36 36 36 36 36 36 35 33 32 32 31
24 24 24 25 26 27 28 29 31 31 32 33 33 34 34 34 34 34 34 34 33 33 34 34 34 35 35 36 36 37 37 38 38 39 39 40 40 40 41 41 42 42 42 43 43 42 42 42 41 40 39 38 37 36 35 34 32 32 32 31 31 30 30 30 30 30 31 32 32 33 34 35 36 36 37 37 37 37 37 36 35 33 31 30 30 30
25 25 26 27 28 29 30 31 32 33 33 34 34 34 34 34 34 33 33 33 33 33 33 34 34 35 35 36 36 37 37 38 38 39 39 40 40 40 40 41 41 41 42 42 42 42 42 41 40 39 37 35 34 33 32 31 30 30 30 30 30 30 30 30 30 31 32 32 33 34 35 35 36 37 37 38 38 38 37 36 33 31 30 29 29 29
26 27 28 29 30 31 32 33 33 34 34 34 34 33 33 33 33 33 33 33 33 33 34 34 35 35 36 36 36 37 37 38 38 38 39 39 39 39 39 40 40 40 41 41 42 42 41 40 39 38 36 34 32 31 30 29 29 29 29 29 29 30 30 31 31 32 32 33 34 34 35 36 36 37 37 38 38 38 37 35 32 30 28 28 28 28
Wind_Direction
278 278 278 277 277 278 278 278 277 278 278 278 278 279 279 280 280 280 280 280 281 281 281 282 282 283 283 283 283 283 284 284 284 284 284 284 284 284 284 284 284 284 284 284 283 283 283 282 282 281 279 278 278 277 277 276 275 274 273 271 268 266 264 263 263 264 266 268 271 274 277 280 282 285 287 288 290 291 293 294 295 296 296 297 298 298
278 278 278 277 277 277 277 277 277 277 277 277 278 278 279 279 279 280 280 280 280 281 281 282 282 283 283 283 283 284 284 284 284 284 284 284 284 284 284 284 284 284 284 284 284 283 283 282 281 280 278 277 277 276 275 275 274 273 271 269 267 265 264 263 264 265 267 269 272 274 277 280 282 284 286 288 289 291 292 293 294 295 296 297 298 298
277 277 277 277 276 276 276 276 276 276 277 277 278 278 279 279 279 280 280 280 281 281 281 282 282 283 283 283 284 284 284 284 284 284 284 284 284 284 284 284 284 284 284 284 284 284 283 282 280 279 277 276 275 275 274 273 272 271 269 267 266 264 264 264 265 266 268 270 273 275 277 279 281 283 285 287 288 290 291 293 294 295 296 297 297 298
277 277 276 276 276 275 275 276 276 276 277 277 278 279 279 280 280 280 280 281 281 282 282 282 283 283 284 284 284 284 285 285 285 285 285 285 285 285 285 285 285 285 285 285 285 284 283 282 280 278 276 275 274 273 273 272 271 269 268 266 265 264 264 265 266 268 270 272 273 275 277 279 281 282 284 286 288 289 291 292 293 294 295 296 297 298
277 276 276 276 275 275 276 276 276 277 277 278 278 279 280 280 280 280 281 281 282 283 283 283 284 284 284 285 285 285 285 285 285 285 285 286 286 286 286 286 286 286 286 285 285 284 283 282 280 277 275 274 273 272 271 270 269 268 267 266 265 265 265 266 267 269 271 272 274 275 277 279 280 282 284 285 287 288 290 291 293 294 295 296 296 297
276 276 276 276 276 276 276 276 277 277 278 279 279 280 280 280 281 281 281 282 283 283 284 284 285 285 285 285 285 285 286 286 286 286 286 286 286 286 286 286 286 286 286 286 285 285 283 281 279 277 275 273 272 271 270 269 268 267 266 265 265 265 266 267 268 270 271 273 274 276 277 279 280 282 283 285 286 288 289 291 292 293 294 295 296 296
276 276 276 276 276 276 277 277 278 278 279 279 280 280 280 281 281 281 282 282 283 284 284 285 285 285 285 285 286 286 286 286 286 286 287 287 287 287 287 287 287 286 286 286 285 284 283 281 279 277 275 273 272 271 270 269 268 267 266 266 265 266 266 268 269 270 272 273 275 276 277 279 280 282 283 285 286 287 289 290 291 292 293 294 295 296
275 275 275 276 276 277 277 278 278 279 280 280 281 281 281 281 282 282 283 283 284 284 285 285 285 285 286 286 286 286 286 287 287 287 287 287 287 287 287 287 287 286 286 286 285 284 283 281 279 276 274 273 271 270 270 269 268 267 266 266 266 266 267 268 270 271 272 274 275 277 278 279 281 282 284 285 286 287 289 290 291 292 293 293 294 295
274 275 275 275 276 276 277 278 279 279 280 281 281 282 282 282 283 283 283 284 284 284 285 285 285 286 286 286 286 287 287 287 287 287 287 287 287 287 287 287 287 286 286 286 285 284 282 280 278 276 274 272 271 271 270 269 268 268 267 267 267 267 268 269 270 272 273 274 276 278 279 280 282 283 284 285 287 288 288 290 290 291 292 293 293 294
274 274 274 275 275 276 277 278 279 279 280 280 281 282 282 282 283 283 284 285 285 285 285 285 286 286 286 286 287 287 287 287 287 287 287 287 287 287 287 286 286 286 286 285 284 283 281 280 278 275 274 272 271 270 270 269 269 268 268 268 268 268 269 270 271 273 274 276 277 279 280 281 283 284 285 286 287 288 289 290 290 291 292 292 293 294
273 273 274 274 275 276 276 277 278 279 280 280 281 281 282 282 283 283 284 284 285 285 286 286 286 286 287 287 287 287 287 287 287 287 287 287 287 286 286 285 285 285 284 284 283 282 280 279 277 275 273 272 271 271 270 270 270 269 269 269 269 270 270 272 273 274 276 277 278 280 281 282 283 284 286 287 287 288 289 290 290 291 292 292 293 293
272 273 273 274 274 275 276 277 278 279 280 280 281 282 282 282 282 283 283 284 284 285 286 286 286 287 287 287 287 287 287 287 287 287 287 287 286 286 285 285 284 283 283 282 281 280 279 278 276 274 273 272 271 271 270 270 270 270 270 270 271 271 272 273 275 276 277 278 280 281 282 283 284 285 286 287 288 289 290 290 291 291 292 292 293 293
272 272 273 273 274 275 276 277 278 279 280 280 281 281 282 282 282 283 283 284 284 285 285 286 286 287 287 287 287 287 287 287 287 287 287 287 287 286 285 284 283 283 282 281 280 279 278 276 275 274 272 271 271 271 271 271 271 271 272 272 272 273 274 275 276 277 279 280 281 282 283 284 285 286 287 288 289 290 290 291 291 292 292 293 293 293
272 272 272 273 274 275 276 277 278 278 279 280 281 281 281 282 283 283 284 284 285 285 285 286 286 286 287 287 287 287 287 287 287 287 287 287 287 286 285 285 284 283 282 281 280 278 277 276 275 273 272 271 271 271 271 271 272 272 272 273 274 275 276 277 278 279 280 281 282 283 284 285 286 287 288 289 290 291 291 292 292 292 292 293 293 293
272 272 273 274 274 275 276 277 278 278 279 280 280 281 281 282 283 283 284 285 285 286 286 286 286 287 287 287 287 287 287 287 287 287 287 287 287 286 286 285 284 283 282 281 280 279 277 276 275 274 273 273 272 272 272 272 273 273 274 274 275 276 277 278 280 281 282 283 284 285 286 287 288 289 290 290 291 291 292 292 292 293 293 293 293 294
272 273 273 274 275 276 277 278 278 279 279 280 280 281 281 282 283 284 285 285 286 286 286 286 286 287 287 287 288 288 288 288 287 287 288 287 287 286 286 285 284 283 282 281 280 279 278 277 276 275 275 275 274 274 274 274 275 275 275 276 277 278 279 280 282 283 284 285 286 287 288 289 289 290 291 291 292 292 292 292 293 293 293 293 294 294
272 273 274 275 276 277 278 278 279 279 280 280 280 281 281 282 284 285 285 286 286 286 286 286 287 287 288 288 289 288 288 288 288 288 288 287 287 286 286 285 284 283 282 280 279 278 278 277 277 276 276 276 276 276 276 277 277 277 278 279 280 281 282 283 284 285 286 287 288 289 289 290 290 291 291 292 292 292 293 293 293 293 293 294 294 294
272 274 275 276 277 277 278 278 279 280 280 281 281 282 282 283 285 286 286 286 286 286 287 287 287 288 289 289 289 289 289 289 289 289 289 288 287 287 286 285 283 282 281 280 279 278 278 277 277 277 277 277 277 278 278 278 279 279 280 281 282 283 284 285 286 287 288 288 289 290 290 291 291 292 292 292 292 293 293 293 293 293 294 294 294 294
273 274 275 276 277 277 278 279 280 280 281 281 282 283 284 285 286 286 286 286 286 287 287 287 288 289 290 289 289 290 291 290 290 290 290 289 288 287 286 285 283 282 280 279 278 278 277 277 278 278 278 278 278 279 279 280 280 281 282 283 284 285 286 287 288 288 289 290 290 291 291 291 292 292 292 293 293 293 293 293 293 294 294 294 294 295
273 274 275 276 277 278 278 279 280 280 281 281 283 284 285 285 286 286 286 286 286 287 288 288 289 290 290 290 290 291 291 291 291 291 291 290 289 287 286 285 283 281 280 279 278 277 277 278 278 279 279 279 280 280 280 281 282 283 284 285 285 286 287 288 289 289 290 290 291 291 292 292 292 293 293 293 293 293 293 294 294 294 294 294 295 295
274 275 275 276 277 278 279 280 280 281 281 282 283 284 285 285 285 285 285 286 286 287 288 289 290 291 291 291 291 291 292 291 291 291 291 290 289 288 287 285 283 281 280 278 277 277 277 278 278 279 280 280 281 281 282 283 283 284 285 286 286 287 288 289 289 290 290 291 291 292 292 293 293 293 293 294 294 294 294 294 294 294 294 294 295 295
274 275 276 277 278 279 279 280 280 281 282 283 284 285 285 284 284 284 285 286 287 288 289 290 290 291 292 292 292 292 292 291 291 290 291 290 289 288 286 284 283 281 279 277 276 276 276 277 278 279 280 281 282 283 283 284 284 285 286 286 287 288 289 289 290 290 291 291 292 292 293 293 293 294 294 294 294 294 294 294 294 294 294 295 295 295
275 276 276 277 278 279 280 280 281 282 283 283 284 284 284 284 284 284 285 286 287 288 289 290 291 292 292 292 292 292 291 291 290 290 290 290 289 288 286 284 282 280 279 277 277 276 277 277 279 280 281 282 283 283 284 285 285 286 287 287 288 289 290 290 291 291 291 292 292 293 293 294 294 294 294 294 294 294 293 294 294 294 294 294 295 295
274 275 276 277 278 279 280 280 281 282 282 283 283 283 283 283 283 284 285 286 288 289 290 291 292 292 292 292 291 291 291 290 290 290 290 290 289 288 286 284 282 281 279 278 278 277 278 278 279 280 281 282 283 284 285 285 286 287 288 289 289 290 290 291 291 291 292 292 293 293 294 294 294 294 293 293 293 293 293 293 294 294 294 294 295 295
273 274 276 277 278 279 280 280 281 281 282 282 282 282 282 283 283 285 286 287 289 289 290 290 291 291 291 291 290 290 290 290 290 290 290 289 289 287 286 284 283 282 280 280 279 279 279 279 280 280 281 282 283 284 285 286 287 288 288 289 289 290 290 291 291 292 292 293 293 294 294 294 293 293 293 293 293 293 293 293 294 294 294 294 295 295
273 275 276 277 278 279 280 280 280 281 281 281 280 281 281 282 283 285 286 288 288 289 289 290 290 291 291 290 290 289 289 289 289 288 288 288 287 286 285 284 282 282 281 281 280 280 280 279 279 280 280 281 282 283 284 285 286 287 288 288 289 290 290 291 292 292 293 293 294 294 293 293 293 293 293 293 293 293 293 293 294 294 294 295 295 295
274 275 277 278 279 279 280 280 280 279 280 280 280 281 281 282 283 285 286 287 288 288 288 289 290 290 290 290 289 288 288 288 287 286 286 285 285 284 283 282 282 281 281 281 281 280 280 280 280 280 280 281 282 283 284 285 286 287 288 289 290 291 291 292 293 293 294 294 294 293 293 293 293 293 293 293 293 293 293 294 294 294 294 295 295 295
276 277 278 279 279 279 279 279 279 279 279 280 280 281 281 282 283 284 285 285 286 286 287 288 288 288 287 287 286 286 286 286 285 285 284 284 284 283 283 282 282 282 282 282 282 282 282 283 283 283 283 283 284 284 285 286 287 288 289 291 292 292 293 294 294 294 294 293 293 293 293 293 293 293 293 293 293 294 294 294 294 295 295 295 295 296
277 278 279 279 279 279 278 278 278 279 279 280 281 281 282 282 282 282 283 283 284 285 285 285 285 285 285 284 284 284 285 285 284 284 284 284 284 284 284 284 284 285 285 285 285 285 285 286 286 286 286 286 286 287 287 287 288 290 291 292 293 294 295 295 294 294 294 293 293 293 293 293 293 293 294 294 294 294 295 295 295 295 295 295 296 296
278 278 279 279 279 278 278 278 278 279 280 281 281 282 282 282 282 282 282 283 283 284 284 284 284 284 283 283 284 284 284 284 284 284 284 285 285 285 286 287 288 288 288 288 288 288 288 288 289 289 289 289 289 289 289 290 290 291 292 293 294 295 295 295 295 294 294 294 294 293 293 293 294 294 294 294 295 295 295 295 295 295 296 296 295 295
277 278 278 278 277 277 277 278 279 279 280 281 281 282 282 282 282 282 283 283 283 283 284 283 283 283 283 283 284 284 284 284 285 285 286 286 287 288 289 290 290 291 291 291 292 291 291 290 290 291 291 291 292 292 292 292 293 293 293 294 294 295 295 295 295 295 294 294 294 294 294 294 294 294 295 295 295 295 295 295 295 295 295 295 295 294
276 276 276 276 276 276 277 278 279 279 279 280 280 280 281 281 281 281 281 282 282 282 282 282 282 282 283 283 284 284 285 285 285 286 287 288 289 290 291 292 292 293 293 293 294 294 294 293 292 292 293 293 294 294 294 294 295 295 295 295 295 295 296 295 295 295 295 295 294 294 295 295 295 295 295 295 296 296 296 296 295 295 295 294 294 293
274 274 274 274 274 275 276 277 278 278 278 278 278 278 279 279 279 279 279 280 280 280 280 281 281 282 282 283 284 284 285 286 287 287 288 290 291 292 293 293 294 295 295 295 295 295 295 295 295 294 294 295 295 296 296 296 296 296 297 297 297 297 297 296 296 296 295 295 295 295 296 296 296 296 296 296 296 296 296 295 295 294 294 293 293 293
271 271 272 272 273 275 276 277 277 277 277 277 276 276 276 276 276 277 277 277 277 278 279 279 280 281 283 284 284 285 287 288 289 289 291 292 293 294 294 295 295 296 296 296 296 296 296 296 296 297 297 297 297 297 298 298 298 298 298 298 298 298 298 297 297 297 297 297 297 297 297 297 297 297 296 296 296 296 295 295 294 294 293 292 292 292
270 270 271 273 274 275 276 277 277 276 276 276 275 275 274 274 274 275 275 275 276 277 278 279 281 282 284 285 287 288 290 290 291 292 293 294 294 295 295 296 296 296 297 297 297 297 297 297 298 298 298 299 299 299 299 299 299 299 300 300 300 299 299 298 298 298 298 298 298 298 298 298 297 297 297 296 296 295 295 294 293 292 292 292 292 292
271 272 274 275 276 277 277 276 276 276 275 275 274 274 274 274 274 275 275 276 277 278 279 281 283 284 286 288 290 291 292 292 293 294 295 295 295 296 296 297 297 298 298 298 298 298 298 298 299 299 300 300 300 300 300 300 300 300 301 301 300 300 300 299 299 299 299 299 299 299 299 298 298 297 297 296 296 295 294 293 293 292 291 291 291 292
273 274 276 277 277 277 277 276 276 275 275 275 275 275 275 276 277 277 278 280 281 282 284 286 287 289 290 291 293 293 294 294 294 295 295 295 296 296 297 297 298 298 298 298 298 298 299 299 299 300 300 300 300 301 300 300 301 301 301 301 301 301 301 301 301 301 300 300 300 300 299 299 298 298 297 296 296 295 294 293 292 292 291 291 292 292
273 274 275 276 276 276 275 275 275 275 275 276 276 277 278 279 280 282 283 284 286 287 289 290 291 292 293 294 294 294 294 294 294 294 294 295 295 296 296 297 297 297 297 298 298 298 299 299 300 300 300 300 300 301 301 301 301 301 301 301 301 302 302 302 302 301 301 301 301 300 300 299 298 298 297 296 296 295 294 294 293 292 292 292 292 292
271 272 273 273 273 272 272 273 273 274 274 275 276 278 279 281 282 284 285 287 288 289 290 291 291 292 292 293 293 293 293 293 293 293 294 294 295 295 296 296 296 297 297 297 298 298 299 300 300 300 301 301 301 301 301 302 302 302 302 302 302 302 302 302 302 302 302 301 301 300 299 299 298 297 296 296 296 295 295 294 293 293 292 292 291 291
269 269 269 268 268 268 268 268 269 270 272 273 275 277 278 280 281 283 284 285 287 288 289 290 290 291 291 292 292 293 293 293 293 294 294 294 295 295 295 296 296 296 297 297 298 299 299 300 300 301 301 301 301 302 302 302 303 303 303 303 303 303 303 303 302 302 302 301 301 300 299 298 297 297 296 296 296 296 296 295 294 294 293 292 292 291
265 265 264 263 263 263 263 264 265 267 269 271 273 275 277 279 280 282 283 285 286 287 289 290 290 291 292 293 293 293 294 294 294 294 294 295 295 295 295 296 296 296 297 298 298 299 300 301 301 301 302 302 302 302 303 304 304 304 304 304 304 303 303 303 303 302 302 301 300 299 298 297 297 297 297 297 297 297 297 296 296 295 294 293 292 292
262 260 259 259 259 260 261 262 263 265 267 270 272 275 277 279 281 283 284 286 288 289 290 291 291 292 293 294 294 294 294 294 294 294 295 295 295 295 296 296 297 297 298 299 299 300 301 301 302 302 303 303 303 303 304 305 305 305 305 305 304 303 303 303 303 302 301 300 299 298 297 297 297 297 297 298 298 298 297 297 296 296 295 294 294 294
258 257 257 257 258 259 260 262 264 266 269 272 274 277 279 281 283 285 287 288 289 290 291 292 292 293 293 294 294 294 294 294 294 295 295 295 295 296 296 297 298 299 299 300 301 301 302 302 303 303 304 304 304 305 305 306 306 306 305 305 304 304 303 303 302 301 300 299 298 297 297 297 297 297 298 298 298 298 297 297 296 296 296 296 296 296
257 256 257 257 258 260 261 264 267 270 273 276 278 280 282 283 285 287 288 290 290 291 291 292 292 293 293 293 293 293 293 293 294 295 295 296 296 297 298 299 299 300 301 301 302 303 303 303 304 304 304 305 305 305 306 306 306 306 305 304 304 303 303 303 302 301 299 298 297 297 297 297 297 297 298 298 298 298 298 297 297 297 297 297 297 297
257 257 258 259 260 263 266 269 272 275 278 280 282 284 285 286 287 289 290 291 291 291 292 292 292 293 293 293 292 292 292 293 294 294 295 296 297 298 299 300 300 301 301 302 302 303 303 304 304 304 304 305 305 306 307 307 306 306 304 303 303 302 302 302 301 300 299 298 297 297 297 297 297 297 298 298 298 298 298 298 298 297 298 298 299 299
257 258 259 262 265 268 271 274 277 280 282 284 285 286 287 288 289 290 290 291 291 292 292 292 292 292 292 292 292 292 292 293 294 294 295 296 297 298 299 300 300 301 301 301 302 302 303 303 303 304 304 305 305 306 307 307 306 305 303 302 301 301 300 300 300 299 298 298 297 297 297 297 298 298 298 299 299 299 299 298 298 299 299 300 300 300
257 259 262 266 270 273 276 278 281 283 285 286 287 288 288 289 290 290 290 291 291 291 292 292 292 292 292 292 292 293 293 293 294 295 296 297 298 298 299 299 300 300 300 301 302 302 303 303 303 303 304 305 305 306 306 306 304 303 301 300 299 299 299 299 299 298 298 298 298 298 298 299 299 299 299 299 299 299 298 298 299 300 301 301 301 300
259 262 266 270 274 277 279 281 283 284 286 287 288 288 288 289 289 290 290 290 290 291 291 291 291 291 292 292 293 293 294 294 295 296 297 298 298 298 299 299 300 300 300 301 301 302 302 303 303 303 304 305 305 306 305 304 303 301 300 299 299 298 298 298 298 299 299 299 299 299 299 300 300 300 300 299 299 298 298 299 300 301 302 302 301 300
263 266 270 274 276 279 281 283 284 285 286 287 288 288 288 288 288 289 289 290 290 290 290 291 291 291 292 293 294 294 295 296 297 297 298 298 299 299 299 299 299 300 300 301 301 302 302 302 303 303 304 305 305 305 304 302 300 299 298 297 297 298 298 298 298 298 299 299 299 300 300 300 300 301 300 300 299 299 298 299 301 302 303 303 301 300
267 270 273 276 278 280 282 283 284 285 286 287 287 287 287 288 288 288 289 289 289 290 290 290 291 292 293 294 295 295 296 297 297 298 298 299 299 299 299 299 299 300 300 300 301 301 301 301 302 302 303 303 303 302 301 299 298 296 296 296 296 297 297 297 298 298 299 299 299 300 300 301 301 301 301 300 300 299 299 300 302 304 304 303 301 299
270 273 276 278 280 281 282 284 284 285 285 286 286 286 287 287 288 289 289 289 290 290 291 291 292 293 294 295 295 296 297 297 298 298 299 299 299 299 299 299 299 299 299 300 300 300 300 300 301 302 302 302 301 300 299 297 296 295 294 294 295 296 297 298 298 299 299 300 300 301 301 301 301 301 301 301 300 300 300 301 303 305 304 303 301 299
Height
3065 3064 3064 3064 3064 3063 3062 3062 3062 3062 3061 3061 3061 3061 3060 3060 3059 3059 3058 3058 3057 3057 3057 3057 3056 3056 3055 3055 3054 3054 3053 3053 3053 3052 3052 3052 3051 3051 3050 3050 3049 3049 3048 3048 3047 3047 3047 3046 3046 3045 3045 3045 3045 3044 3044 3044 3044 3043 3043 3043 3043 3043 3042 3042 3042 3042 3042 3041 3041 3041 3040 3040 3040 3039 3039 3039 3038 3038 3038 3037 3037 3037 3036 3035 3035 3034
3063 3062 3062 3062 3062 3061 3060 3060 3060 3060 3059 3058 3058 3058 3058 3057 3057 3056 3056 3055 3055 3055 3054 3054 3054 3053 3053 3052 3052 3052 3051 3051 3050 3050 3050 3049 3049 3048 3048 3047 3047 3046 3046 3045 3045 3044 3044 3043 3043 3043 3043 3042 3042 3042 3042 3042 3041 3041 3041 3041 3041 3040 3040 3040 3040 3039 3039 3039 3039 3038 3038 3038 3037 3037 3037 3037 3036 3036 3035 3035 3034 3034 3033 3033 3032 3032
3060 3060 3059 3059 3059 3058 3057 3057 3057 3057 3057 3056 3055 3055 3055 3055 3054 3053 3053 3053 3052 3052 3052 3052 3052 3051 3051 3050 3050 3049 3049 3048 3048 3047 3047 3047 3047 3046 3046 3045 3044 3044 3043 3043 3042 3042 3041 3041 3041 3040 3040 3040 3040 3040 3039 3039 3039 3039 3039 3038 3038 3038 3038 3038 3037 3037 3037 3037 3036 3036 3036 3035 3035 3035 3034 3034 3034 3033 3033 3032 3032 3032 3031 3031 3030 3029
3057 3057 3056 3056 3056 3056 3055 3055 3054 3054 3054 3053 3053 3053 3052 3052 3052 3051 3051 3050 3050 3050 3050 3050 3049 3049 3048 3048 3047 3047 3046 3046 3045 3045 3045 3044 3044 3044 3043 3042 3042 3041 3041 3040 3040 3039 3039 3038 3038 3038 3038 3037 3037 3037 3037 3037 3037 3036 3036 3036 3036 3036 3036 3035 3035 3035 3035 3034 3034 3034 3033 3033 3033 3032 3032 3032 3031 3031 3030 3030 3030 3029 3028 3028 3027 3027
3054 3054 3053 3053 3053 3053 3052 3052 3052 3052 3051 3051 3051 3050 3050 3050 3049 3048 3048 3048 3047 3047 3047 3047 3047 3047 3046 3046 3045 3044 3044 3043 3043 3042 3042 3042 3042 3041 3041 3040 3039 3038 3038 3037 3037 3037 3036 3036 3036 3035 3035 3035 3035 3035 3034 3034 3034 3034 3034 3034 3033 3033 3033 3033 3033 3032 3032 3032 3032 3031 3031 3031 3030 3030 3030 3029 3029 3028 3028 3027 3027 3027 3026 3026 3025 3024
3051 3051 3051 3050 3050 3050 3050 3050 3049 3049 3049 3048 3048 3048 3047 3047 3047 3046 3046 3046 3045 3045 3045 3045 3044 3044 3044 3043 3043 3042 3042 3041 3040 3040 3040 3039 3039 3038 3038 3037 3037 3036 3035 3035 3034 3034 3033 3033 3033 3033 3033 3032 3032 3032 3032 3032 3032 3032 3031 3031 3031 3031 3031 3031 3030 3030 3030 3029 3029 3029 3028 3028 3028 3027 3027 3027 3026 3026 3026 3025 3025 3024 3024 3023 3022 3022
3048 3048 3048 3047 3047 3047 3047 3047 3047 3047 3046 3046 3045 3045 3045 3044 3044 3043 3043 3043 3043 3043 3042 3042 3042 3042 3041 3041 3040 3040 3039 3038 3038 3037 3037 3037 3036 3036 3035 3035 3034 3033 3033 3032 3032 3031 3031 3031 3030 3030 3030 3030 3030 3030 3029 3029 3029 3029 3029 3029 3028 3028 3028 3028 3028 3027 3027 3027 3027 3026 3026 3026 3025 3025 3024 3024 3024 3023 3023 3022 3022 3022 3021 3021 3020 3019
3046 3046 3046 3045 3045 3044 3044 3044 3044 3044 3044 3043 3043 3042 3042 3042 3041 3041 3041 3041 3041 3041 3040 3040 3039 3039 3039 3038 3038 3037 3036 3036 3035 3034 3034 3034 3033 3033 3033 3032 3032 3031 3030 3029 3029 3028 3028 3028 3028 3028 3027 3027 3027 3027 3027 3027 3027 3027 3026 3026 3026 3026 3026 3025 3025 3025 3025 3024 3024 3024 3023 3023 3022 3022 3022 3022 3021 3021 3020 3020 3019 3019 3018 3018 3017 3017
3043 3043 3043 3043 3042 3042 3042 3042 3041 3041 3041 3040 3040 3039 3039 3039 3038 3038 3038 3038 3038 3038 3038 3037 3037 3037 3036 3036 3035 3034 3034 3033 3032 3032 3031 3031 3031 3031 3030 3030 3029 3028 3027 3027 3026 3026 3025 3025 3025 3025 3025 3025 3025 3025 3024 3024 3024 3024 3024 3023 3023 3023 3023 3023 3022 3022 3022 3022 3021 3021 3021 3020 3020 3019 3019 3019 3018 3018 3017 3017 3017 3016 3016 3015 3014 3014
3041 3041 3040 3040 3040 3040 3040 3039 3039 3038 3038 3038 3037 3037 3036 3036 3036 3036 3035 3035 3035 3035 3035 3035 3034 3034 3033 3033 3032 3032 3031 3030 3030 3029 3029 3028 3028 3028 3027 3027 3026 3026 3025 3024 3023 3023 3022 3022 3022 3022 3022 3022 3022 3022 3022 3022 3022 3022 3021 3021 3021 3021 3020 3020 3020 3020 3019 3019 3018 3018 3018 3017 3017 3017 3016 3016 3016 3015 3015 3014 3014 3013 3012 3012 3012 3011
3038 3038 3038 3037 3037 3037 3037 3037 3036 3036 3036 3035 3034 3034 3033 3033 3033 3033 3033 3033 3032 3032 3032 3032 3032 3031 3031 3030 3029 3029 3028 3027 3027 3026 3026 3026 3025 3025 3025 3024 3024 3023 3022 3022 3021 3020 3019 3019 3019 3019 3019 3019 3019 3019 3019 3019 3019 3019 3018 3018 3018 3018 3018 3017 3017 3017 3016 3016 3016 3015 3015 3014 3014 3014 3013 3013 3012 3012 3012 3011 3011 3010 3009 3009 3008 3008
3036 3036 3035 3035 3035 3035 3035 3034 3034 3033 3033 3032 3032 3031 3030 3030 3030 3030 3030 3030 3030 3029 3029 3029 3028 3028 3028 3027 3026 3026 3025 3024 3024 3023 3023 3022 3022 3022 3022 3021 3021 3020 3020 3019 3018 3017 3016 3016 3016 3016 3016 3017 3017 3017 3017 3016 3016 3016 3016 3016 3015 3015 3015 3015 3014 3014 3013 3013 3013 3012 3012 3012 3011 3011 3010 3010 3009 3009 3008 3008 3007 3007 3006 3006 3005 3004
3033 3033 3033 3033 3033 3032 3032 3032 3031 3031 3030 3029 3029 3028 3027 3027 3027 3027 3027 3027 3027 3027 3026 3026 3025 3025 3025 3024 3023 3023 3022 3022 3021 3020 3020 3019 3019 3018 3018 3018 3017 3017 3017 3016 3015 3014 3013 3013 3013 3013 3013 3013 3014 3014 3014 3013 3013 3013 3013 3012 3012 3012 3012 3012 3011 3011 3010 3010 3010 3009 3009 3008 3008 3008 3007 3007 3006 3006 3005 3005 3004 3003 3003 3002 3002 3001
3030 3030 3030 3030 3030 3030 3030 3029 3029 3028 3027 3027 3026 3025 3024 3024 3023 3024 3024 3024 3024 3024 3023 3023 3022 3022 3022 3021 3020 3020 3019 3018 3018 3017 3017 3016 3016 3015 3015 3015 3014 3014 3014 3013 3012 3011 3010 3010 3010 3010 3011 3011 3011 3011 3011 3011 3010 3010 3010 3010 3009 3009 3009 3008 3008 3008 3007 3007 3007 3006 3006 3005 3005 3004 3004 3003 3003 3002 3002 3001 3000 3000 2999 2998 2998 2997
3027 3027 3027 3027 3027 3027 3027 3027 3026 3025 3025 3024 3023 3022 3022 3021 3021 3021 3021 3021 3021 3021 3020 3020 3019 3019 3018 3018 3017 3017 3016 3015 3015 3015 3014 3014 3013 3012 3012 3012 3012 3011 3011 3010 3009 3008 3007 3007 3007 3007 3007 3008 3008 3008 3008 3007 3007 3007 3007 3007 3006 3006 3006 3005 3005 3005 3004 3004 3003 3003 3002 3002 3002 3001 3000 3000 2999 2998 2998 2997 2997 2996 2995 2995 2994 2993
3025 3025 3024 3025 3025 3025 3024 3023 3023 3022 3022 3021 3020 3019 3019 3018 3018 3018 3018 3018 3017 3017 3017 3017 3017 3016 3016 3015 3014 3013 3013 3012 3012 3012 3012 3011 3010 3010 3009 3009 3009 3008 3008 3007 3006 3005 3004 3004 3004 3004 3005 3005 3005 3005 3005 3005 3004 3004 3004 3003 3003 3003 3002 3002 3002 3001 3001 3000 3000 2999 2999 2998 2998 2997 2997 2996 2995 2995 2994 2993 2993 2992 2991 2991 2990 2989
3022 3022 3022 3022 3022 3022 3021 3021 3020 3019 3018 3018 3017 3017 3016 3015 3015 3015 3015 3015 3014 3014 3014 3013 3013 3013 3012 3012 3011 3010 3010 3009 3009 3009 3009 3008 3008 3007 3007 3006 3006 3006 3006 3005 3004 3002 3002 3002 3002 3002 3002 3002 3002 3002 3002 3002 3001 3001 3001 3000 3000 3000 2999 2999 2998 2998 2997 2997 2997 2996 2995 2995 2994 2993 2993 2992 2992 2991 2990 2989 2989 2988 2987 2987 2986 2985
3019 3019 3019 3019 3019 3019 3018 3017 3017 3016 3016 3015 3014 3014 3013 3013 3012 3012 3012 3012 3011 3011 3010 3010 3010 3010 3010 3009 3008 3007 3007 3006 3006 3006 3006 3006 3006 3005 3004 3004 3003 3003 3003 3002 3001 3000 3000 2999 2999 2999 2999 2999 2999 2999 2999 2999 2998 2998 2998 2997 2997 2996 2996 2995 2995 2994 2994 2993 2993 2992 2992 2991 2990 2990 2989 2988 2987 2987 2986 2985 2985 2984 2983 2982 2982 2981
3017 3017 3017 3017 3016 3016 3015 3015 3014 3013 3012 3012 3011 3011 3011 3010 3010 3009 3008 3008 3008 3007 3007 3007 3007 3007 3007 3006 3005 3004 3004 3003 3002 3002 3003 3003 3003 3002 3002 3001 3001 3001 3001 3000 2999 2998 2997 2997 2997 2997 2997 2997 2997 2997 2996 2996 2996 2995 2995 2994 2994 2993 2993 2992 2992 2991 2991 2990 2989 2988 2988 2987 2987 2986 2985 2984 2983 2983 2982 2981 2980 2980 2979 2978 2977 2976
3014 3014 3014 3013 3013 3012 3012 3012 3011 3011 3010 3009 3009 3008 3008 3007 3007 3006 3006 3005 3005 3004 3004 3004 3004 3004 3004 3003 3002 3001 3001 3000 3000 2999 3000 3000 3000 3000 2999 2999 2998 2998 2998 2998 2997 2996 2995 2995 2995 2994 2994 2994 2994 2994 2994 2993 2993 2992 2992 2992 2991 2990 2990 2989 2988 2988 2987 2986 2986 2985 2984 2983 2982 2982 2981 2980 2979 2978 2978 2977 2976 2975 2974 2973 2973 2972
3011 3011 3011 3010 3010 3009 3009 3009 3008 3007 3007 3007 3006 3006 3005 3005 3004 3003 3002 3002 3002 3001 3001 3001 3001 3001 3001 3000 2999 2999 2998 2997 2997 2996 2997 2997 2997 2997 2997 2996 2996 2996 2996 2995 2995 2994 2993 2993 2992 2992 2992 2992 2992 2991 2991 2991 2990 2990 2989 2989 2988 2987 2987 2986 2985 2984 2984 2983 2982 2981 2980 2979 2978 2978 2977 2976 2975 2974 2973 2972 2972 2971 2970 2969 2968 2967
3007 3007 3007 3007 3007 3006 3006 3006 3005 3004 3004 3003 3003 3003 3002 3002 3001 3000 3000 2999 2999 2998 2998 2998 2998 2998 2997 2997 2997 2996 2995 2994 2994 2993 2994 2994 2995 2995 2995 2994 2993 2993 2993 2993 2992 2992 2991 2991 2991 2990 2990 2989 2989 2988 2988 2988 2987 2987 2986 2986 2985 2984 2984 2983 2982 2981 2980 2979 2978 2977 2976 2975 2975 2974 2973 2972 2971 2970 2969 2968 2967 2966 2965 2965 2964 2963
3005 3004 3004 3004 3004 3003 3003 3002 3002 3001 3001 3000 3000 3000 2999 2998 2998 2997 2997 2997 2996 2996 2995 2995 2995 2995 2995 2994 2994 2993 2992 2992 2991 2991 2991 2991 2992 2992 2992 2991 2991 2991 2991 2991 2990 2989 2989 2989 2989 2988 2987 2987 2987 2986 2986 2985 2985 2984 2983 2983 2982 2981 2981 2980 2979 2978 2977 2976 2975 2973 2972 2972 2971 2970 2969 2968 2967 2966 2965 2964 2963 2962 2961 2960 2959 2958
3002 3002 3001 3001 3001 3000 3000 2999 2998 2998 2997 2997 2997 2996 2996 2995 2995 2994 2994 2994 2993 2993 2992 2992 2992 2992 2992 2992 2991 2991 2990 2989 2988 2988 2988 2988 2989 2989 2989 2988 2988 2987 2988 2988 2988 2987 2987 2987 2987 2986 2985 2985 2984 2983 2983 2982 2982 2981 2981 2980 2979 2978 2977 2977 2976 2974 2973 2972 2971 2970 2969 2967 2967 2966 2965 2964 2963 2962 2961 2960 2959 2957 2957 2956 2955 2954
2999 2999 2998 2998 2997 2997 2997 2996 2995 2995 2994 2994 2993 2993 2993 2992 2992 2991 2991 2991 2990 2990 2989 2989 2989 2989 2989 2989 2989 2988 2988 2987 2987 2986 2986 2986 2986 2986 2986 2986 2985 2985 2985 2985 2985 2985 2985 2985 2985 2984 2983 2982 2982 2981 2980 2980 2979 2978 2977 2977 2976 2975 2974 2973 2972 2971 2970 2969 2967 2966 2965 2964 2962 2962 2961 2960 2958 2957 2956 2955 2954 2953 2952 2951 2950 2949
2995 2995 2995 2995 2995 2994 2994 2993 2992 2992 2992 2991 2991 2990 2990 2989 2989 2988 2988 2988 2987 2987 2987 2987 2987 2987 2987 2987 2986 2986 2985 2985 2984 2984 2983 2983 2983 2983 2983 2983 2982 2982 2982 2982 2983 2983 2982 2982 2982 2982 2982 2981 2980 2979 2978 2977 2977 2976 2975 2974 2973 2972 2971 2970 2969 2968 2967 2965 2964 2962 2961 2960 2958 2957 2956 2955 2954 2953 2952 2951 2949 2948 2947 2947 2946 2945
2992 2992 2992 2992 2992 2991 2991 2990 2990 2989 2989 2988 2988 2987 2987 2987 2986 2986 2986 2985 2985 2984 2984 2984 2984 2984 2984 2984 2983 2983 2983 2983 2982 2982 2981 2981 2981 2981 2981 2980 2980 2979 2979 2980 2980 2980 2980 2980 2980 2980 2979 2978 2978 2977 2976 2975 2974 2973 2972 2971 2970 2969 2968 2967 2966 2965 2963 2962 2960 2959 2957 2956 2954 2953 2952 2951 2950 2948 2947 2946 2945 2943 2942 2942 2941 2940
2988 2989 2989 2989 2988 2988 2988 2987 2987 2987 2986 2986 2985 2984 2984 2984 2984 2983 2983 2983 2982 2982 2982 2982 2982 2982 2981 2981 2981 2981 2981 2980 2980 2979 2979 2978 2978 2978 2978 2977 2977 2977 2977 2977 2977 2977 2977 2977 2977 2976 2976 2976 2975 2974 2973 2973 2972 2971 2969 2968 2967 2966 2965 2963 2962 2961 2960 2958 2957 2955 2953 2952 2950 2949 2947 2946 2945 2943 2942 2941 2939 2938 2937 2936 2935 2934
2985 2985 2985 2985 2985 2985 2985 2985 2984 2984 2983 2983 2982 2982 2982 2981 2981 2981 2980 2980 2980 2980 2980 2980 2980 2979 2979 2979 2979 2978 2978 2978 2977 2976 2976 2976 2975 2975 2975 2975 2974 2974 2974 2974 2974 2974 2974 2974 2973 2972 2972 2972 2971 2971 2970 2969 2969 2968 2967 2965 2964 2962 2961 2960 2958 2957 2956 2954 2952 2951 2949 2947 2946 2944 2943 2942 2940 2939 2937 2936 2934 2933 2932 2931 2930 2929
2982 2982 2982 2982 2982 2982 2982 2982 2982 2981 2981 2980 2980 2979 2979 2979 2978 2978 2978 2977 2977 2977 2977 2977 2977 2977 2976 2976 2976 2976 2976 2975 2974 2973 2973 2973 2973 2972 2973 2972 2972 2971 2971 2970 2970 2970 2971 2970 2970 2969 2968 2967 2967 2967 2966 2965 2965 2964 2963 2962 2961 2959 2958 2956 2954 2953 2952 2950 2948 2946 2945 2943 2941 2940 2938 2937 2935 2934 2932 2931 2929 2927 2926 2925 2925 2923
2979 2979 2979 2979 2979 2979 2979 2979 2978 2978 2978 2977 2977 2976 2976 2976 2976 2975 2975 2975 2975 2975 2975 2974 2974 2974 2974 2973 2973 2973 2973 2972 2972 2971 2971 2970 2970 2970 2970 2969 2969 2968 2968 2967 2966 2966 2966 2967 2966 2965 2964 2963 2963 2962 2962 2961 2960 2959 2959 2958 2957 2956 2954 2952 2951 2949 2947 2946 2944 2942 2941 2939 2937 2936 2934 2932 2931 2929 2927 2926 2924 2922 2921 2920 2919 2918
2976 2976 2976 2976 2976 2976 2976 2976 2976 2975 2975 2975 2974 2974 2973 2973 2973 2973 2972 2972 2972 2972 2972 2972 2972 2971 2971 2971 2971 2971 2970 2970 2969 2968 2968 2967 2967 2967 2967 2967 2966 2965 2964 2964 2963 2962 2962 2962 2962 2962 2961 2960 2959 2958 2957 2957 2956 2955 2954 2953 2952 2952 2950 2948 2946 2944 2943 2941 2940 2938 2936 2934 2933 2931 2929 2928 2926 2925 2923 2921 2919 2917 2916 2914 2913 2913
2973 2973 2973 2973 2973 2973 2973 2973 2973 2973 2972 2972 2972 2971 2971 2971 2971 2970 2970 2970 2970 2970 2969 2969 2969 2968 2968 2968 2968 2968 2968 2967 2967 2966 2966 2965 2964 2964 2964 2963 2962 2962 2961 2960 2960 2959 2958 2957 2957 2957 2957 2956 2955 2954 2953 2952 2952 2951 2950 2949 2948 2947 2945 2944 2942 2940 2938 2937 2935 2934 2932 2930 2928 2927 2925 2923 2922 2920 2918 2917 2914 2912 2911 2909 2908 2907
2971 2971 2971 2971 2971 2971 2971 2970 2970 2970 2970 2969 2969 2969 2969 2968 2968 2968 2968 2968 2967 2967 2967 2967 2966 2966 2966 2966 2966 2966 2966 2965 2964 2963 2962 2962 2962 2961 2961 2960 2959 2959 2958 2957 2956 2956 2955 2954 2953 2953 2952 2952 2951 2951 2949 2948 2947 2946 2946 2945 2943 2942 2940 2939 2937 2935 2934 2932 2931 2929 2928 2926 2924 2922 2921 2919 2917 2916 2914 2912 2910 2908 2907 2905 2903 2902
2968 2968 2968 2968 2968 2968 2968 2967 2967 2967 2967 2967 2967 2967 2966 2966 2966 2966 2966 2965 2965 2965 2964 2964 2964 2964 2964 2963 2963 2963 2963 2962 2961 2960 2959 2959 2958 2957 2957 2957 2956 2955 2954 2953 2953 2952 2951 2950 2950 2949 2948 2947 2947 2947 2946 2944 2943 2942 2941 2940 2939 2937 2935 2934 2932 2931 2929 2928 2927 2925 2923 2922 2920 2918 2916 2915 2913 2911 2910 2908 2906 2905 2903 2901 2900 2899
2965 2965 2965 2965 2965 2965 2965 2964 2964 2964 2964 2964 2964 2964 2964 2964 2963 2963 2963 2963 2962 2962 2962 2962 2961 2961 2961 2961 2961 2961 2960 2959 2958 2957 2956 2956 2955 2954 2953 2953 2952 2952 2951 2950 2949 2948 2947 2946 2946 2945 2944 2943 2942 2942 2942 2941 2939 2938 2937 2936 2934 2932 2931 2929 2927 2926 2924 2923 2922 2920 2918 2917 2915 2913 2912 2910 2909 2907 2906 2904 2903 2902 2900 2899 2897 2896
2962 2962 2962 2962 2962 2962 2962 2961 2961 2961 2961 2961 2961 2961 2961 2961 2961 2960 2960 2960 2959 2959 2959 2959 2958 2958 2958 2958 2958 2958 2957 2957 2956 2954 2953 2952 2952 2951 2950 2950 2949 2948 2947 2946 2945 2944 2944 2943 2942 2941 2941 2940 2939 2938 2937 2937 2936 2934 2933 2932 2930 2928 2927 2925 2923 2922 2920 2918 2917 2916 2914 2912 2911 2909 2907 2906 2905 2903 2902 2901 2900 2899 2897 2896 2895 2894
2959 2959 2959 2959 2959 2959 2958 2958 2958 2958 2958 2958 2958 2958 2958 2958 2958 2957 2957 2957 2957 2957 2956 2956 2956 2956 2955 2955 2955 2955 2954 2954 2952 2952 2951 2949 2949 2948 2947 2947 2946 2945 2944 2943 2942 2941 2940 2939 2938 2937 2937 2936 2936 2934 2933 2932 2931 2930 2929 2928 2926 2924 2922 2921 2919 2917 2916 2914 2912 2911 2909 2908 2906 2905 2903 2902 2901 2900 2899 2898 2897 2896 2895 2894 2893 2892
2957 2957 2957 2957 2957 2956 2956 2956 2956 2956 2956 2956 2956 2956 2956 2956 2955 2955 2955 2955 2954 2954 2954 2954 2954 2953 2953 2953 2952 2952 2952 2951 2950 2948 2947 2947 2946 2945 2945 2944 2943 2942 2941 2940 2939 2938 2937 2936 2935 2934 2933 2932 2932 2931 2930 2928 2927 2926 2924 2923 2922 2921 2919 2917 2915 2913 2912 2910 2908 2907 2905 2904 2902 2901 2900 2899 2898 2897 2897 2896 2895 2894 2893 2892 2891 2890
2955 2955 2955 2954 2954 2954 2954 2954 2954 2954 2954 2954 2954 2954 2954 2954 2953 2953 2953 2953 2952 2952 2952 2952 2952 2951 2951 2951 2950 2949 2948 2947 2946 2945 2944 2944 2943 2942 2942 2941 2940 2939 2938 2937 2936 2935 2934 2932 2931 2930 2930 2928 2927 2926 2925 2924 2923 2921 2920 2918 2917 2916 2915 2913 2911 2909 2907 2906 2904 2903 2901 2900 2899 2898 2897 2896 2895 2895 2894 2893 2892 2891 2890 2889 2888 2887
2952 2952 2952 2952 2952 2952 2952 2952 2952 2952 2952 2952 2952 2952 2952 2952 2952 2951 2951 2951 2951 2950 2950 2949 2949 2949 2948 2948 2947 2946 2945 2944 2943 2942 2941 2940 2940 2939 2938 2937 2937 2936 2934 2933 2932 2932 2930 2929 2928 2927 2926 2925 2923 2922 2921 2920 2919 2917 2915 2914 2912 2912 2911 2910 2908 2906 2903 2902 2901 2899 2898 2897 2896 2895 2894 2894 2893 2892 2892 2891 2889 2888 2887 2886 2885 2884
2950 2950 2950 2950 2950 2950 2951 2951 2951 2951 2951 2951 2950 2950 2950 2950 2949 2949 2949 2948 2948 2947 2947 2947 2946 2946 2945 2945 2944 2943 2942 2941 2940 2939 2938 2937 2936 2935 2934 2934 2933 2932 2931 2930 2929 2928 2927 2926 2924 2923 2922 2920 2919 2918 2917 2917 2915 2914 2912 2910 2908 2907 2907 2906 2904 2902 2900 2898 2897 2896 2895 2894 2893 2892 2892 2891 2891 2890 2889 2888 2887 2886 2884 2883 2882 2881
2947 2947 2947 2947 2948 2948 2948 2948 2948 2948 2948 2948 2948 2947 2947 2947 2947 2946 2946 2946 2945 2945 2944 2944 2943 2943 2942 2942 2941 2940 2939 2937 2937 2936 2935 2934 2933 2932 2931 2930 2929 2928 2927 2926 2925 2924 2923 2922 2921 2919 2917 2917 2915 2914 2914 2913 2912 2910 2908 2906 2904 2903 2902 2902 2901 2900 2897 2896 2894 2893 2892 2891 2890 2890 2889 2889 2888 2887 2886 2885 2884 2883 2882 2880 2879 2877
2944 2944 2944 2945 2945 2946 2946 2946 2946 2946 2945 2945 2945 2945 2944 2944 2944 2944 2943 2943 2943 2942 2942 2941 2940 2940 2939 2939 2938 2938 2937 2935 2934 2933 2932 2931 2930 2929 2927 2926 2925 2924 2923 2922 2921 2920 2919 2918 2917 2916 2914 2913 2912 2911 2910 2909 2908 2907 2905 2903 2901 2899 2898 2897 2897 2896 2895 2893 2892 2891 2890 2889 2888 2887 2887 2887 2886 2885 2884 2882 2881 2880 2878 2877 2876 2874
2941 2942 2942 2942 2942 2943 2943 2943 2943 2943 2942 2942 2942 2942 2942 2941 2941 2941 2941 2940 2940 2939 2938 2938 2937 2937 2936 2936 2936 2935 2934 2933 2932 2931 2929 2928 2927 2926 2925 2923 2922 2921 2920 2919 2918 2917 2916 2915 2913 2912 2911 2910 2909 2908 2907 2905 2904 2903 2901 2900 2898 2897 2895 2894 2893 2892 2892 2891 2890 2889 2887 2886 2886 2885 2884 2884 2883 2882 2881 2880 2878 2877 2876 2874 2873 2872
2939 2939 2939 2940 2940 2940 2940 2940 2940 2940 2940 2940 2939 2939 2939 2939 2938 2938 2938 2937 2937 2936 2935 2935 2934 2934 2933 2933 2932 2932 2931 2930 2929 2928 2927 2925 2924 2923 2922 2921 2920 2918 2917 2916 2915 2914 2913 2912 2910 2909 2908 2907 2906 2905 2904 2902 2901 2899 2898 2897 2896 2894 2893 2892 2891 2890 2889 2888 2887 2886 2885 2884 2883 2882 2881 2881 2880 2879 2878 2877 2876 2874 2873 2872 2870 2869
2936 2937 2937 2937 2937 2937 2937 2937 2937 2937 2937 2937 2937 2937 2936 2936 2936 2935 2935 2934 2933 2933 2932 2932 2931 2931 2930 2930 2929 2928 2928 2927 2926 2925 2924 2922 2921 2920 2919 2918 2917 2916 2914 2913 2912 2911 2910 2908 2907 2906 2905 2904 2903 2902 2901 2900 2898 2896 2894 2893 2892 2892 2891 2890 2889 2888 2887 2886 2885 2884 2882 2882 2880 2879 2878 2877 2877 2876 2875 2874 2873 2872 2870 2869 2867 2866
2934 2934 2934 2935 2935 2935 2935 2935 2935 2935 2934 2934 2934 2934 2933 2933 2933 2932 2932 2931 2931 2930 2929 2929 2928 2928 2927 2927 2926 2925 2924 2923 2923 2922 2921 2919 2918 2917 2916 2915 2913 2912 2911 2910 2909 2908 2907 2906 2904 2903 2902 2901 2900 2899 2898 2897 2896 2894 2892 2891 2890 2889 2888 2887 2887 2886 2884 2883 2882 2881 2880 2879 2877 2876 2875 2874 2874 2873 2872 2871 2870 2869 2867 2866 2864 2863
2932 2932 2932 2932 2932 2932 2932 2932 2932 2932 2932 2932 2931 2931 2930 2930 2930 2929 2929 2928 2928 2927 2927 2926 2925 2925 2924 2923 2923 2922 2921 2920 2919 2918 2917 2916 2915 2914 2913 2912 2910 2909 2908 2907 2906 2905 2904 2902 2902 2901 2900 2899 2898 2896 2895 2894 2893 2892 2890 2888 2887 2887 2886 2885 2884 2883 2882 2881 2880 2879 2877 2876 2875 2873 2872 2871 2870 2869 2869 2868 2867 2866 2865 2863 2862 2860
2929 2929 2929 2930 2930 2930 2929 2929 2929 2929 2929 2929 2928 2928 2927 2927 2927 2926 2926 2925 2925 2924 2924 2923 2922 2922 2921 2921 2920 2919 2918 2917 2916 2915 2914 2913 2912 2911 2910 2908 2907 2906 2905 2903 2902 2902 2901 2900 2899 2899 2898 2897 2896 2894 2893 2892 2890 2889 2888 2887 2886 2885 2884 2883 2882 2881 2880 2879 2877 2876 2875 2873 2872 2871 2869 2867 2866 2866 2865 2865 2864 2864 2863 2861 2859 2857
2927 2927 2927 2927 2927 2927 2927 2927 2926 2926 2926 2926 2925 2925 2925 2924 2924 2923 2923 2922 2922 2921 2920 2920 2919 2919 2918 2917 2917 2916 2915 2914 2913 2912 2911 2910 2909 2908 2907 2905 2904 2903 2902 2900 2899 2898 2898 2897 2897 2896 2896 2895 2894 2892 2891 2889 2888 2887 2886 2885 2883 2882 2881 2880 2879 2878 2877 2876 2875 2874 2872 2871 2869 2868 2866 2865 2863 2862 2861 2861 2861 2861 2860 2858 2857 2855